#timestamp,LO_Frequency,Hit,StdDev 
1647090015.5,286046997.3,N
1647090035.3,286046996.7,N
1647090055.1,286046997.2,N
1647090075.9,286046998.0,N
1647090095.7,286046997.4,N
1647090115.6,286046997.2,N
1647090135.4,286046997.7,N
1647090155.2,286046997.1,N
1647090175.1,286046997.7,N
1647090176.0,286046997.7,N
1647090195.8,286046999.6,N
1647090215.6,286046999.4,N
1647090235.5,286046996.8,N
1647090255.3,286046999.5,N
1647090275.2,286047001.2,N
1647090295.9,286047001.1,N
1647090315.7,286047000.8,N
1647090335.6,286047001.2,N
1647090355.4,286046998.7,N
1647090375.2,286047000.4,N
1647090395.1,286046998.6,N
1647090396.0,286046998.6,N
1647090415.8,286046998.5,N
1647090435.7,286047001.2,N
1647090455.5,286046998.6,N
1647090475.3,286047000.4,N
1647090495.2,286046998.5,N
1647090515.0,286047000.3,N
1647090515.9,286047000.3,N
1647090535.7,286046999.9,N
1647090555.6,286046999.9,N
1647090575.4,286047000.8,N
1647090595.3,286046998.3,N
1647090615.1,286047000.9,N
1647090616.0,286047000.9,N
1647090635.8,286047001.1,N
1647090655.7,286047000.7,N
1647090675.5,286047000.6,N
1647090695.3,286046998.1,N
1647090715.2,286047000.2,N
1647090735.0,286047000.2,N
1647090735.9,286047000.2,N
1647090755.8,286046999.8,N
1647090775.6,286047001.8,N
1647090795.4,286047002.7,N
1647090815.3,286046999.7,N
1647090835.1,286046999.7,N
1647090855.8,286047000.1,N
1647090875.7,286047000.2,N
1647090895.5,286047000.2,N
1647090915.3,286046999.7,N
1647090935.2,286047000.7,N
1647090955.0,286047000.0,N
1647090955.9,286047000.0,N
1647090975.8,286047002.5,N
1647090995.6,286047002.6,N
1647091015.4,286047002.5,N
1647091035.3,286047001.5,N
1647091055.1,286047001.4,N
1647091075.8,286047001.7,N
1647091095.7,286047000.2,N
1647091115.5,286046999.8,N
1647091135.4,286047000.0,N
1647091155.2,286046999.8,N
1647091175.0,286047002.6,N
1647091175.9,286047002.6,N
1647091195.8,286047002.2,N
1647091215.6,286047002.2,N
1647091235.4,286047002.5,N
1647091255.3,286047002.5,N
1647091275.1,286047002.2,N
1647091295.9,286047002.6,N
1647091315.7,286047002.0,N
1647091335.5,286047001.7,N
1647091355.4,286047004.1,Y
1647091375.2,286047002.0,P
1647091395.1,286047002.7,P
1647091396.0,286047002.7,P
1647091415.8,286046999.7,N
1647091435.6,286047000.9,N
1647091455.5,286047001.2,N
1647091475.3,286047000.8,N
1647091495.1,286047001.0,N
1647091515.9,286047000.2,N
1647091535.7,286047001.1,N
1647091555.6,286047000.9,N
1647091575.4,286046998.3,N
1647091595.2,286046999.3,N
1647091615.1,286046998.5,N
1647091616.0,286046998.5,N
1647091635.8,286046999.0,N
1647091655.6,286046999.1,N
1647091675.5,286046999.6,N
1647091695.3,286046996.5,N
1647091715.2,286046999.0,N
1647091735.9,286046998.6,N
1647091755.7,286046998.7,N
1647091775.6,286046998.8,N
1647091795.4,286047000.7,N
1647091815.2,286047001.0,N
1647091835.1,286047000.6,N
1647091836.0,286047000.6,N
1647091855.8,286047001.0,N
1647091875.7,286047000.0,N
1647091895.5,286047000.3,N
1647091915.3,286047000.0,N
1647091935.2,286047000.5,N
1647091955.0,286047000.7,N
1647091955.9,286047000.7,N
1647091975.7,286047000.5,N
1647091995.6,286047002.4,N
1647092015.4,286047000.8,N
1647092035.3,286047001.0,N
1647092055.1,286047000.0,N
1647092056.0,286047000.0,N
1647092075.8,286047002.4,N
1647092095.7,286047002.4,N
1647092115.5,286047002.7,N
1647092135.3,286046998.5,N
1647092155.2,286046998.1,N
1647092175.0,286047001.1,N
1647092175.9,286047001.1,N
1647092195.8,286047001.5,N
1647092215.6,286047000.3,N
1647092235.4,286047001.1,N
1647092255.3,286046998.9,N
1647092275.1,286046998.1,N
1647092295.8,286046997.1,N
1647092315.7,286046999.4,N
1647092335.5,286046999.5,N
1647092355.4,286046999.1,N
1647092375.2,286046998.4,N
1647092395.0,286047000.7,N
1647092395.9,286047000.7,N
1647092415.8,286047000.4,N
1647092435.6,286046998.5,N
1647092455.4,286047001.2,N
1647092475.3,286047000.1,N
1647092495.1,286047002.3,N
1647092515.9,286047001.4,N
1647092535.7,286047002.1,N
1647092555.5,286046999.8,N
1647092575.4,286047002.8,N
1647092595.2,286047000.2,N
1647092615.0,286047000.2,N
1647092615.9,286047000.2,N
1647092635.8,286047000.2,N
1647092655.6,286047000.6,N
1647092675.5,286047002.1,N
1647092695.3,286046999.8,N
1647092715.1,286047000.8,N
1647092735.9,286047000.3,N
1647092755.7,286047000.3,N
1647092775.5,286047002.0,N
1647092795.4,286047002.8,N
1647092815.2,286047001.9,N
1647092835.1,286047001.5,N
1647092836.0,286047001.5,N
1647092855.8,286047003.8,Y
1647092875.6,286047000.5,P
1647092895.5,286047002.2,P
1647092915.3,286047000.2,N
1647092935.1,286047000.8,N
1647092955.9,286046998.2,N
1647092975.7,286047000.0,N
1647092995.6,286046999.7,N
1647093015.4,286047000.8,N
1647093035.2,286046999.3,N
1647093055.1,286046999.0,N
1647093056.0,286046999.0,N
1647093075.8,286046998.1,N
1647093095.6,286046998.3,N
1647093115.5,286047000.5,N
1647093135.3,286047000.7,N
1647093155.1,286047000.6,N
1647093175.9,286046998.2,N
1647093195.7,286047000.4,N
1647093215.6,286047002.7,N
1647093235.4,286047000.3,N
1647093255.2,286047001.9,N
1647093275.1,286047002.7,N
1647093276.0,286047002.7,N
1647093295.8,286046999.8,N
1647093315.7,286046999.8,N
1647093335.5,286047000.0,N
1647093355.3,286046998.2,N
1647093375.2,286047000.5,N
1647093395.9,286046999.9,N
1647093415.7,286046999.2,N
1647093435.6,286046996.5,N
1647093455.4,286046997.0,N
1647093475.2,286046997.4,N
1647093495.1,286046995.3,Y
1647093496.0,286046995.3,P
1647093515.8,286046997.8,N
1647093535.7,286046996.9,N
1647093555.5,286046997.8,N
1647093575.3,286046999.3,N
1647093595.2,286047000.8,N
